Budapest Ferihegy, Hungary

6:19 AM CET on February 07, 2016 (GMT +0100)
Ferihegy

Weather History for LHBP - May, 2013

Change the Weather History Date:

Sunday, May 12, 2013

  Actual Average Record
Temperature  
Mean Temperature 58 °F -  
Max Temperature 64 °F 72 °F - ()
Min Temperature 53 °F 49 °F - ()
Degree Days  
Heating Degree Days 6    
Growing Degree Days 8 (Base 50)    
Moisture  
Dew Point 53 °F    
Average Humidity 84    
Maximum Humidity 100    
Minimum Humidity 68    
Precipitation  
Precipitation 0.00 in - - ()
Sea Level Pressure  
Sea Level Pressure 29.77 in    
Wind  
Wind Speed 13 mph ()    
Max Wind Speed 22 mph    
Max Gust Speed -    
Visibility 6.2 miles    
Events Rain , Thunderstorm    
T = Trace of Precipitation, MM = Missing Value Source: Averaged Metar Reports

Daily Weather History Graph

Daily Weather History Graph

Search for Another Location

Airport or City:

Trip Planner

Search our weather history database for the weather conditions in past years. The results will help you decide how hot, cold, wet, or windy it might be!

Date:

Astronomy

May. 12, 2013 Rise Set
Actual Time 5:10 AM CEST 8:09 PM CEST
Civil Twilight 4:34 AM CEST 8:45 PM CEST
Nautical Twilight 3:47 AM CEST 9:31 PM CEST
Astronomical Twilight 2:51 AM CEST 10:28 PM CEST
Moon 6:48 AM CEST (5/12) 10:24 PM CEST (5/12)
Length of Visible Light 16h 11m
Length of Day
14h 59m
Waxing Crescent, 5% of the Moon is Illuminated
May 12
Waxing Crescent
May 18
First Quarter
May 25
Full
May 31
Last Quarter
Jun 8
New

Hourly Weather History & Observations

Time (CEST) Temp. Dew Point Humidity Pressure Visibility Wind Dir Wind Speed Gust Speed Precip Events Conditions
12:00 AM 57.2 °F 55.4 °F 94% 29.83 in - WNW 16.1 mph - N/A   Clear
12:30 AM 57.2 °F 55.4 °F 94% 29.83 in 6.2 mi West 11.5 mph - N/A Thunderstorm Scattered Clouds
1:00 AM 57.2 °F 55.4 °F 94% 29.77 in 6.2 mi NW 15.0 mph - N/A Rain Light Rain Showers
1:30 AM 55.4 °F 55.4 °F 100% 29.77 in 6.2 mi WNW 17.3 mph - N/A   Scattered Clouds
2:00 AM 55.4 °F 55.4 °F 100% 29.77 in 6.2 mi WNW 15.0 mph - N/A   Partly Cloudy
2:30 AM 55.4 °F 55.4 °F 100% 29.77 in 6.2 mi WNW 11.5 mph - N/A   Partly Cloudy
3:00 AM 55.4 °F 55.4 °F 100% 29.77 in 6.2 mi WNW 11.5 mph - N/A   Mostly Cloudy
3:30 AM 55.4 °F 53.6 °F 94% 29.77 in 6.2 mi WNW 12.7 mph - N/A   Mostly Cloudy
4:00 AM 55.4 °F 55.4 °F 100% 29.74 in 6.2 mi WNW 12.7 mph - N/A   Mostly Cloudy
4:30 AM 53.6 °F 53.6 °F 100% 29.77 in 6.2 mi West 10.4 mph - N/A   Scattered Clouds
5:00 AM 53.6 °F 53.6 °F 100% 29.77 in 6.2 mi West 9.2 mph - N/A   Scattered Clouds
5:30 AM 53.6 °F 53.6 °F 100% 29.77 in 6.2 mi WNW 9.2 mph - N/A   Scattered Clouds
6:00 AM 53.6 °F 53.6 °F 100% 29.74 in 6.2 mi West 11.5 mph - N/A   Scattered Clouds
6:30 AM 55.4 °F 53.6 °F 94% 29.74 in 6.2 mi West 12.7 mph - N/A   Scattered Clouds
7:00 AM 55.4 °F 53.6 °F 94% 29.77 in 6.2 mi WNW 12.7 mph - N/A   Scattered Clouds
7:30 AM 57.2 °F 53.6 °F 88% 29.77 in 6.2 mi WNW 16.1 mph - N/A   Scattered Clouds
8:00 AM 57.2 °F 53.6 °F 88% 29.77 in 6.2 mi WNW 18.4 mph - N/A   Scattered Clouds
8:30 AM 59.0 °F 53.6 °F 82% 29.77 in 6.2 mi WNW 17.3 mph - N/A   Scattered Clouds
9:00 AM 59.0 °F 53.6 °F 82% 29.77 in 6.2 mi WNW 13.8 mph - N/A   Mostly Cloudy
9:30 AM 59.0 °F 53.6 °F 82% 29.77 in 6.2 mi WNW 16.1 mph - N/A   Mostly Cloudy
10:00 AM 59.0 °F 53.6 °F 82% 29.77 in 6.2 mi WNW 15.0 mph - N/A   Mostly Cloudy
10:30 AM 60.8 °F 53.6 °F 77% 29.77 in 6.2 mi WNW 11.5 mph - N/A   Scattered Clouds
11:00 AM 60.8 °F 55.4 °F 82% 29.77 in 6.2 mi West 12.7 mph - N/A   Scattered Clouds
11:30 AM 60.8 °F 53.6 °F 77% 29.77 in 6.2 mi WNW 12.7 mph - N/A   Scattered Clouds
12:00 PM 62.6 °F 55.4 °F 77% 29.77 in 6.2 mi West 15.0 mph - N/A   Scattered Clouds
12:30 PM 62.6 °F 53.6 °F 72% 29.77 in 6.2 mi WNW 13.8 mph - N/A   Scattered Clouds
1:00 PM 62.6 °F 55.4 °F 77% 29.77 in 6.2 mi WNW 15.0 mph - N/A   Scattered Clouds
1:30 PM 62.6 °F 55.4 °F 77% 29.77 in 6.2 mi WNW 16.1 mph - N/A   Scattered Clouds
2:00 PM 64.4 °F 55.4 °F 73% 29.77 in 6.2 mi WNW 17.3 mph - N/A   Partly Cloudy
2:30 PM 62.6 °F 53.6 °F 72% 29.74 in 6.2 mi West 16.1 mph - N/A   Partly Cloudy
3:00 PM 62.6 °F 53.6 °F 72% 29.74 in 6.2 mi West 17.3 mph - N/A   Scattered Clouds
3:30 PM 62.6 °F 53.6 °F 72% 29.74 in 6.2 mi West 16.1 mph - N/A   Scattered Clouds
4:00 PM 62.6 °F 51.8 °F 68% 29.74 in 6.2 mi WNW 16.1 mph - N/A   Scattered Clouds
4:30 PM 60.8 °F 53.6 °F 77% 29.74 in 6.2 mi WNW 16.1 mph - N/A   Scattered Clouds
5:00 PM 60.8 °F 51.8 °F 72% 29.74 in 6.2 mi WNW 17.3 mph - N/A   Scattered Clouds
5:30 PM 60.8 °F 51.8 °F 72% 29.74 in 6.2 mi WNW 17.3 mph - N/A   Scattered Clouds
6:00 PM 59.0 °F 51.8 °F 77% 29.74 in 6.2 mi WNW 17.3 mph - N/A   Mostly Cloudy
6:30 PM 59.0 °F 51.8 °F 77% 29.74 in - WNW 15.0 mph - N/A   Clear
7:00 PM 59.0 °F 51.8 °F 77% 29.77 in - WNW 16.1 mph - N/A   Clear
7:30 PM 59.0 °F 51.8 °F 77% 29.77 in - WNW 15.0 mph - N/A   Clear
8:00 PM 57.2 °F 50.0 °F 77% 29.77 in - WNW 12.7 mph - N/A   Clear
8:30 PM 57.2 °F 50.0 °F 77% 29.77 in 6.2 mi WNW 13.8 mph - N/A   Mostly Cloudy
9:00 PM 57.2 °F 50.0 °F 77% 29.77 in 6.2 mi WNW 15.0 mph - N/A   Mostly Cloudy
9:30 PM 57.2 °F 50.0 °F 77% 29.77 in 6.2 mi WNW 13.8 mph - N/A   Mostly Cloudy
10:00 PM 57.2 °F 50.0 °F 77% 29.80 in - WNW 16.1 mph - N/A   Clear
10:30 PM 55.4 °F 50.0 °F 82% 29.80 in - WNW 17.3 mph - N/A   Clear
11:00 PM 55.4 °F 50.0 °F 82% 29.80 in 6.2 mi WNW 21.9 mph - N/A   Mostly Cloudy
11:30 PM 55.4 °F 50.0 °F 82% 29.80 in 6.2 mi WNW 16.1 mph - N/A   Mostly Cloudy